Temperature
21 22 21 21 21 20 20 20 19 19 19 19 19 19 19 19 19 19 19 18 18 18 18 18 18 18 18 18 18 18 18 18 18 18 18 18 17 17 17 17 17 17 17
21 22 22 21 21 20 20 20 19 19 19 19 19 18 18 18 18 18 18 18 18 18 18 18 18 18 18 18 18 18 18 18 18 18 18 18 17 17 17 17 17 17 17
22 22 22 21 21 20 20 20 19 19 19 19 18 18 18 18 18 18 18 18 18 18 18 18 18 18 18 18 18 18 18 18 18 17 17 17 17 17 17 17 17 17 17
22 22 22 21 21 20 20 20 19 19 19 19 18 18 18 18 18 18 18 18 18 18 18 18 18 18 18 18 18 18 18 18 17 17 17 17 17 17 17 17 17 17 17
21 21 22 21 21 20 20 20 19 19 19 19 18 18 18 18 18 18 18 18 18 18 18 18 18 18 18 18 18 18 18 17 17 17 17 17 17 17 17 17 17 17 17
20 21 21 21 21 20 20 20 19 19 19 19 18 18 18 18 18 18 18 18 18 18 18 18 18 18 18 18 18 18 18 17 17 17 17 17 18 17 17 17 17 17 17
20 20 21 21 21 20 20 20 19 19 19 18 18 18 18 18 18 18 18 18 18 18 18 18 18 18 18 18 18 18 18 17 17 17 17 17 17 17 17 17 17 17 17
20 20 21 20 20 20 20 19 19 19 19 19 18 18 18 18 18 18 18 18 18 18 18 18 18 18 18 18 18 18 18 17 17 17 17 17 17 17 17 17 17 17 17
20 20 21 20 20 20 19 19 19 19 19 19 18 18 18 18 18 18 18 18 18 18 18 18 18 18 18 18 18 18 18 18 17 17 17 18 18 17 17 17 17 17 17
20 20 20 20 20 19 19 19 19 19 19 18 18 18 18 18 18 18 18 18 18 18 18 18 18 18 18 18 18 18 18 18 18 17 18 18 18 17 17 17 17 17 17
20 19 19 19 19 19 19 19 19 18 18 18 18 18 18 18 18 18 18 18 18 18 18 18 18 18 18 18 18 18 18 18 18 18 18 18 18 17 17 17 17 17 17
20 19 19 19 19 18 18 18 18 18 18 18 18 18 18 17 17 17 18 18 18 18 18 18 18 18 18 18 18 18 18 18 18 18 18 18 18 18 17 17 17 17 17
20 20 19 19 19 19 18 18 18 18 18 18 18 18 18 18 17 17 18 18 18 18 17 18 18 17 17 17 18 18 18 18 18 18 18 18 18 18 17 17 17 17 17
20 20 19 19 19 19 19 18 18 18 18 18 18 18 18 18 18 17 18 18 18 17 17 17 17 17 17 17 18 18 18 18 18 18 18 18 18 18 18 17 17 17 17
20 20 19 19 19 19 19 18 18 18 18 18 18 18 18 18 18 18 18 18 17 17 17 17 17 17 17 17 17 18 18 18 17 17 18 18 18 18 17 17 17 17 17
20 19 19 19 19 19 19 18 18 18 18 18 18 18 18 18 18 17 17 18 17 17 17 17 17 17 17 17 17 17 17 17 17 17 17 17 17 17 17 17 17 17 17
20 19 19 19 19 19 18 18 18 18 18 18 18 18 18 18 18 18 17 17 17 17 17 17 17 17 17 17 17 17 17 17 17 17 17 17 17 17 17 17 17 17 17
19 19 19 19 18 18 18 18 18 18 18 18 18 18 18 17 17 17 17 17 17 17 17 17 17 17 17 17 17 17 17 17 17 17 17 17 17 17 17 17 17 17 17
19 19 19 18 18 18 18 18 18 18 18 18 18 18 18 17 17 17 17 17 17 17 17 17 17 17 17 17 17 17 17 17 17 17 17 17 17 17 17 17 17 17 17
19 18 18 18 18 18 18 18 18 18 18 18 18 18 18 17 17 17 17 17 17 17 17 17 17 17 17 17 17 17 17 17 17 17 17 17 17 17 17 17 17 17 17
19 18 18 18 18 18 18 18 18 18 18 18 18 18 17 17 17 17 17 17 17 17 17 17 17 17 17 17 17 17 17 17 17 17 17 17 17 17 17 17 16 16 16
19 18 18 18 18 18 18 18 18 18 18 18 18 18 17 17 17 17 17 17 17 17 17 16 16 17 17 17 17 17 17 17 17 17 17 17 17 17 17 16 16 16 16
19 18 18 18 18 18 18 18 18 18 18 18 17 17 17 17 17 17 17 17 17 17 17 16 16 17 17 17 17 17 17 18 17 17 17 17 17 17 17 17 16 16 16
19 19 18 18 18 18 18 18 18 18 18 18 18 17 17 17 17 17 17 17 17 16 16 16 16 16 17 17 17 17 17 17 17 17 17 17 17 17 17 17 16 16 16
19 18 18 18 18 18 18 18 18 18 18 18 17 17 17 17 17 16 16 16 16 16 16 16 16 16 17 17 17 18 18 18 18 18 17 17 17 17 17 17 17 16 16
19 19 18 18 18 18 18 18 18 18 18 18 17 17 17 17 17 16 16 16 16 16 16 16 16 16 16 17 17 17 18 18 18 18 18 18 18 17 17 17 17 17 16
Wind_Speed
18 18 19 17 16 15 15 15 15 15 15 14 14 14 13 13 13 13 14 13 13 12 12 12 12 12 12 13 14 14 15 16 17 18 19 18 17 15 14 16 17 16 17
22 20 20 18 16 15 16 16 15 15 15 15 14 13 13 13 13 13 13 12 12 12 12 12 12 12 13 13 14 14 14 14 16 17 18 17 16 14 13 14 16 14 16
22 21 20 19 17 16 16 17 16 16 15 14 13 13 12 12 12 12 12 12 12 13 13 13 13 13 13 13 13 13 12 13 14 15 15 15 14 15 17 18 17 16 15
22 20 19 20 19 18 17 17 16 16 15 14 13 13 12 12 12 12 12 12 12 13 13 13 13 13 13 12 12 11 10 10 11 11 10 13 14 15 16 16 15 15 15
21 20 21 21 20 18 17 17 16 16 15 14 13 12 12 12 12 12 12 12 13 13 13 13 13 13 12 11 10 9 8 7 8 8 13 16 15 14 14 14 14 14 14
21 21 22 21 20 19 18 17 16 16 15 14 13 13 12 12 12 13 12 12 12 13 13 13 13 13 12 11 9 7 4 3 3 9 14 15 14 13 13 13 14 14 13
19 20 22 21 20 19 18 17 16 16 15 14 13 13 12 12 12 13 12 12 12 12 12 12 12 12 11 9 7 4 2 1 2 12 15 14 14 14 13 13 13 13 13
19 19 20 21 20 19 18 17 16 16 15 14 13 13 13 12 12 12 12 12 12 11 11 11 11 10 10 8 5 2 0 4 4 14 16 15 15 14 13 13 12 12 12
20 19 17 18 18 18 17 16 16 15 15 14 13 13 12 13 12 12 12 11 11 10 10 10 9 9 8 7 4 1 2 5 1 13 16 14 15 14 13 12 12 11 11
17 19 17 17 17 16 15 16 16 15 14 14 13 13 13 12 13 12 12 11 10 10 9 9 8 8 7 6 4 2 3 5 1 12 15 15 15 13 12 11 11 11 11
14 15 17 16 15 16 16 16 15 14 14 13 12 12 12 11 12 11 12 11 10 9 8 7 7 7 7 7 5 4 4 2 7 12 14 17 15 13 12 11 11 10 10
15 13 12 15 14 14 14 14 12 12 12 11 11 11 9 8 10 11 13 11 10 9 8 7 7 7 8 8 8 7 5 3 8 12 15 18 15 13 11 10 10 10 10
15 12 11 13 11 11 9 10 9 9 10 9 10 9 7 8 9 11 9 9 9 9 8 8 8 8 7 4 5 5 2 2 7 13 15 17 15 13 11 10 10 9 9
13 12 11 10 8 8 9 7 6 6 6 6 7 8 6 3 3 5 5 7 8 7 5 6 4 2 3 4 3 2 2 3 9 13 14 15 14 12 11 11 10 9 9
14 13 11 10 8 7 7 5 7 5 6 7 9 7 7 3 3 3 3 2 3 6 5 2 2 3 2 1 2 4 3 4 7 11 13 14 13 12 11 11 10 10 9
12 12 11 11 10 9 6 4 5 6 5 7 8 8 6 5 3 3 3 1 1 3 3 2 3 3 1 1 1 2 2 4 8 10 12 12 13 13 12 11 10 10 10
12 11 11 11 10 9 8 7 5 5 6 5 6 7 5 5 6 3 3 2 2 4 4 1 2 3 3 3 3 2 2 2 6 7 10 11 12 12 12 12 11 10 10
13 11 10 11 10 8 7 6 5 4 5 5 7 7 5 6 6 3 3 3 2 4 3 2 1 2 2 2 3 2 3 3 4 6 8 10 11 11 12 12 12 11 10
14 13 11 9 11 9 8 5 4 4 4 5 7 7 6 6 6 3 3 3 2 2 2 2 3 1 1 2 3 3 3 3 3 5 5 7 10 12 12 13 13 13 12
13 13 12 10 10 9 7 5 4 5 4 4 5 6 7 6 6 3 4 2 2 1 2 2 3 2 1 1 2 4 3 3 3 3 4 6 9 12 13 13 13 12 13
12 12 12 11 10 9 7 7 6 5 5 4 5 7 7 6 5 1 3 3 1 2 2 3 2 2 2 1 1 2 3 4 4 3 2 2 5 8 12 13 13 12 12
13 12 12 11 11 10 8 6 6 6 5 5 4 6 7 6 6 5 3 3 3 3 2 1 1 1 3 3 1 2 2 2 2 5 4 3 3 5 7 11 11 11 11
14 14 13 12 11 10 9 7 6 5 3 4 6 5 6 6 5 3 4 1 3 3 4 2 2 2 1 2 2 1 1 1 2 2 3 4 3 2 3 6 9 10 10
14 14 12 12 11 10 10 9 10 8 6 7 6 6 6 6 6 6 4 3 1 1 5 4 4 1 1 2 2 1 1 1 1 2 2 4 5 4 3 3 6 9 9
13 13 12 11 11 11 10 10 9 8 7 6 7 8 7 5 5 6 5 4 2 1 4 1 3 1 1 2 1 2 2 2 2 2 2 3 3 4 4 3 3 7 11
11 12 12 11 10 10 10 10 10 9 8 8 8 8 7 6 5 6 6 5 4 2 4 2 2 3 1 2 2 2 1 2 3 2 2 4 4 4 5 4 3 5 9
Wind_Direction
131 131 132 128 125 125 128 127 126 124 121 116 112 109 106 103 99 96 94 93 94 93 91 90 90 87 86 85 86 87 89 92 93 95 96 96 96 96 100 104 99 95 98
129 131 132 129 128 127 129 128 126 126 124 120 117 114 111 109 105 102 98 98 97 95 93 92 91 90 91 91 92 94 97 101 103 104 103 98 93 91 95 97 96 101 100
128 132 133 131 131 129 128 129 129 127 125 123 121 118 117 114 110 106 102 100 99 97 96 95 94 93 94 95 96 100 105 110 113 115 115 107 96 91 94 96 100 104 101
132 138 136 134 133 130 129 129 129 128 127 125 123 121 118 115 111 109 104 101 100 99 98 97 96 96 97 99 100 105 112 119 122 124 123 113 104 99 100 101 104 105 103
135 136 135 138 135 133 131 131 131 131 130 127 126 124 121 118 115 112 107 102 100 100 99 97 97 97 99 101 103 108 117 128 131 128 105 99 102 107 107 108 108 107 106
135 135 139 140 137 136 134 133 133 132 130 128 127 125 123 118 115 112 107 103 102 101 99 98 98 99 100 103 106 110 119 141 148 118 109 109 110 114 113 113 112 109 110
137 136 140 141 139 139 138 137 135 132 131 129 127 126 122 117 115 113 110 107 104 101 101 101 100 102 103 105 108 112 125 255 198 118 115 112 115 118 116 115 113 111 111
134 133 139 141 141 141 140 140 138 136 134 132 129 127 123 122 117 114 112 110 107 104 104 104 103 103 106 109 112 116 295 299 126 119 116 116 121 119 119 118 116 116 115
132 133 140 143 142 143 143 143 141 139 138 138 134 130 129 127 124 121 117 116 113 110 110 110 110 110 112 117 128 165 303 315 23 123 118 120 125 123 123 122 122 122 121
133 137 145 147 146 149 147 146 145 143 142 140 139 139 139 137 135 134 128 124 122 120 121 121 123 125 129 135 152 213 287 304 139 116 118 129 131 129 128 127 127 126 127
136 144 153 150 152 155 152 148 148 148 147 147 150 152 155 156 146 150 129 133 134 133 136 140 146 153 156 165 182 215 253 247 97 109 119 132 134 134 133 132 133 133 132
147 157 154 149 157 158 151 147 153 157 155 168 161 168 180 166 150 136 137 145 148 149 154 166 177 188 199 184 187 208 237 175 130 124 128 136 137 138 138 138 139 140 140
156 154 146 148 159 151 137 151 160 156 161 176 165 174 170 155 148 138 152 155 166 169 179 173 197 212 196 169 172 193 210 100 112 116 134 138 141 143 145 147 148 149 149
150 147 146 144 149 136 141 150 151 149 160 156 162 178 164 157 146 141 154 169 176 172 172 179 201 184 133 149 156 147 118 75 98 117 138 142 146 149 152 155 157 157 155
153 153 150 144 133 129 130 151 156 147 161 155 164 183 164 153 140 129 123 144 169 148 162 181 162 121 108 160 187 150 126 103 115 122 138 150 154 157 160 162 164 164 163
154 150 144 140 134 133 139 151 150 149 154 155 165 165 172 142 124 129 128 128 111 118 112 150 142 131 178 155 102 106 137 139 122 125 144 157 162 165 168 171 173 175 175
154 147 142 142 141 147 156 169 167 159 162 150 141 144 163 139 133 139 138 172 135 127 131 163 138 152 185 170 150 139 133 111 129 141 151 161 168 173 176 178 183 185 186
151 151 154 155 150 158 169 177 169 158 146 137 139 143 151 131 142 162 155 139 147 153 152 144 185 175 158 146 139 150 131 135 142 161 170 172 169 174 181 186 187 189 193
152 155 161 153 157 164 171 175 155 135 130 134 141 139 144 146 151 178 113 107 196 170 161 181 134 123 139 148 151 155 162 160 160 184 169 173 169 167 175 187 194 195 200
154 158 160 159 159 161 167 163 145 135 137 132 126 130 147 155 160 172 134 141 241 147 105 73 87 74 55 209 207 156 165 164 183 167 181 181 176 178 177 179 189 201 209
156 159 162 165 164 164 167 166 162 158 155 149 144 144 156 151 147 223 119 149 250 103 114 140 135 162 221 212 176 160 180 189 176 165 200 177 178 180 173 176 187 192 198
164 166 167 172 169 168 170 171 168 162 167 154 139 145 153 151 159 177 131 176 140 120 114 105 127 212 217 176 174 175 185 178 209 185 170 179 176 173 177 183 182 187 193
170 172 175 174 172 172 170 168 164 153 165 140 141 157 161 159 171 130 138 149 139 176 150 187 203 237 247 177 192 236 144 176 179 161 186 147 152 167 186 174 181 187 187
174 173 172 170 172 173 175 177 170 172 175 166 162 157 159 168 167 149 154 131 150 110 140 201 177 234 259 254 186 162 172 104 144 151 203 164 179 182 190 195 183 178 180
175 173 170 170 174 177 181 182 184 179 174 166 157 151 163 170 174 161 158 150 175 198 134 133 122 248 261 273 292 201 186 180 243 183 186 176 190 178 180 196 177 178 182
173 170 169 168 176 180 182 184 192 185 180 168 160 160 173 167 181 170 162 156 186 174 130 145 146 201 307 341 344 324 204 202 231 221 186 198 194 185 181 180 183 183 187
Height
1497 1499 1503 1506 1508 1510 1512 1514 1517 1519 1520 1522 1523 1525 1526 1527 1529 1530 1532 1533 1534 1536 1537 1538 1539 1540 1541 1541 1542 1544 1545 1546 1547 1549 1550 1551 1552 1553 1554 1555 1556 1557 1558
1495 1499 1503 1506 1508 1511 1513 1516 1518 1520 1522 1524 1525 1527 1528 1529 1531 1532 1533 1535 1536 1537 1538 1539 1540 1541 1542 1543 1544 1545 1547 1548 1550 1551 1552 1553 1554 1555 1557 1558 1559 1560 1561
1495 1499 1503 1506 1509 1512 1514 1517 1519 1521 1523 1525 1527 1528 1530 1531 1533 1534 1535 1536 1538 1539 1540 1540 1541 1543 1544 1545 1546 1548 1549 1551 1552 1553 1554 1556 1557 1558 1559 1560 1561 1562 1563
1496 1500 1503 1507 1510 1512 1515 1517 1520 1522 1524 1526 1528 1530 1531 1533 1535 1536 1537 1538 1539 1540 1541 1542 1543 1544 1545 1547 1548 1550 1551 1553 1554 1555 1557 1559 1559 1560 1561 1563 1564 1565 1566
1497 1500 1503 1507 1510 1513 1516 1518 1521 1523 1525 1527 1529 1531 1533 1535 1536 1537 1539 1540 1541 1542 1543 1544 1545 1546 1547 1549 1550 1552 1553 1555 1556 1557 1560 1561 1561 1562 1563 1564 1566 1567 1568
1498 1500 1504 1507 1510 1513 1516 1519 1522 1524 1526 1529 1531 1533 1534 1536 1538 1539 1540 1541 1542 1543 1544 1546 1547 1548 1549 1551 1552 1554 1555 1557 1558 1560 1562 1563 1563 1564 1565 1566 1568 1569 1570
1498 1501 1504 1508 1511 1514 1517 1520 1523 1525 1527 1530 1532 1534 1536 1537 1539 1540 1541 1543 1544 1545 1546 1547 1549 1550 1551 1552 1554 1555 1557 1559 1560 1562 1563 1564 1565 1566 1567 1568 1569 1571 1572
1498 1501 1504 1509 1512 1515 1518 1521 1523 1526 1528 1531 1533 1535 1537 1539 1540 1541 1543 1544 1545 1546 1548 1549 1550 1551 1553 1554 1555 1557 1558 1559 1562 1563 1564 1565 1566 1567 1568 1570 1571 1572 1574
1499 1501 1504 1509 1513 1516 1519 1522 1524 1527 1529 1532 1534 1536 1538 1540 1541 1543 1544 1545 1546 1548 1549 1550 1551 1553 1554 1555 1557 1558 1560 1561 1563 1564 1565 1566 1567 1568 1570 1571 1572 1574 1575
1499 1501 1505 1509 1513 1516 1519 1523 1525 1528 1530 1533 1535 1537 1539 1541 1542 1544 1545 1546 1547 1549 1550 1551 1553 1554 1555 1557 1558 1559 1561 1562 1564 1565 1565 1567 1568 1569 1571 1572 1573 1575 1576
1499 1502 1506 1510 1513 1517 1520 1523 1526 1529 1531 1534 1536 1538 1540 1542 1543 1544 1546 1547 1548 1549 1551 1552 1554 1555 1556 1558 1559 1560 1561 1562 1563 1564 1566 1567 1569 1570 1571 1573 1574 1575 1577
1500 1503 1508 1511 1514 1518 1521 1523 1526 1530 1532 1535 1537 1539 1541 1543 1545 1546 1547 1548 1549 1550 1551 1553 1554 1556 1557 1558 1560 1561 1562 1563 1563 1564 1566 1567 1569 1570 1571 1573 1574 1576 1577
1498 1503 1508 1511 1515 1519 1521 1523 1527 1530 1533 1535 1538 1540 1542 1544 1545 1546 1547 1548 1550 1551 1552 1553 1555 1556 1558 1559 1561 1562 1563 1564 1564 1564 1566 1568 1569 1571 1572 1573 1574 1576 1577
1498 1502 1507 1510 1515 1518 1521 1524 1527 1531 1533 1536 1538 1541 1543 1545 1546 1547 1548 1549 1550 1551 1553 1554 1555 1557 1558 1559 1561 1562 1563 1564 1564 1565 1567 1568 1570 1571 1572 1573 1574 1576 1577
1498 1501 1505 1509 1513 1517 1520 1525 1528 1531 1533 1536 1538 1541 1543 1545 1546 1547 1548 1549 1551 1552 1553 1554 1555 1556 1558 1559 1561 1562 1563 1564 1564 1565 1566 1568 1570 1571 1572 1573 1574 1575 1577
1496 1500 1505 1509 1511 1516 1520 1524 1527 1530 1533 1535 1538 1540 1543 1544 1546 1547 1548 1549 1551 1552 1553 1554 1555 1556 1557 1559 1560 1562 1563 1564 1565 1566 1566 1568 1569 1570 1572 1573 1574 1575 1577
1495 1499 1503 1507 1511 1515 1519 1523 1526 1529 1532 1535 1537 1540 1542 1544 1545 1547 1548 1549 1550 1551 1553 1554 1555 1556 1557 1559 1560 1561 1563 1564 1564 1565 1566 1567 1568 1570 1571 1572 1573 1575 1576
1494 1498 1502 1507 1510 1515 1519 1523 1526 1530 1532 1534 1537 1539 1541 1543 1544 1546 1548 1549 1550 1551 1552 1553 1554 1556 1557 1558 1559 1561 1562 1563 1564 1565 1566 1567 1568 1569 1570 1571 1572 1574 1575
1492 1497 1502 1506 1510 1514 1518 1522 1526 1528 1531 1534 1536 1538 1540 1542 1544 1546 1547 1548 1550 1551 1552 1553 1554 1555 1557 1558 1559 1560 1561 1562 1563 1564 1565 1566 1567 1568 1569 1570 1572 1573 1574
1492 1497 1501 1506 1510 1514 1518 1521 1524 1527 1530 1533 1535 1537 1539 1541 1543 1545 1546 1548 1549 1551 1551 1552 1553 1555 1556 1557 1559 1560 1561 1562 1563 1564 1565 1566 1566 1567 1568 1569 1570 1571 1572
1492 1496 1500 1505 1508 1511 1515 1519 1522 1526 1529 1532 1534 1536 1538 1541 1542 1544 1546 1546 1548 1549 1550 1552 1553 1554 1556 1557 1559 1560 1561 1561 1562 1563 1564 1565 1566 1567 1567 1568 1569 1570 1571
1490 1494 1499 1503 1506 1510 1514 1518 1522 1525 1528 1531 1533 1535 1537 1540 1542 1544 1545 1546 1547 1548 1550 1551 1552 1554 1555 1557 1558 1559 1560 1562 1561 1562 1563 1564 1565 1566 1567 1567 1568 1569 1569
1489 1492 1497 1500 1505 1509 1513 1517 1521 1524 1527 1530 1532 1534 1536 1539 1541 1543 1544 1546 1546 1548 1549 1550 1551 1553 1555 1556 1557 1559 1559 1559 1561 1562 1563 1563 1564 1565 1566 1567 1567 1568 1568
1488 1492 1495 1499 1503 1506 1511 1515 1518 1521 1524 1527 1530 1533 1535 1537 1539 1541 1543 1544 1545 1547 1548 1549 1551 1552 1554 1555 1557 1557 1559 1559 1560 1561 1562 1562 1563 1564 1565 1566 1566 1566 1567
1488 1491 1494 1497 1501 1504 1508 1512 1516 1519 1523 1526 1529 1531 1534 1536 1538 1540 1542 1543 1544 1546 1547 1548 1549 1551 1553 1554 1555 1557 1558 1558 1559 1560 1561 1562 1562 1563 1563 1564 1565 1565 1566
1487 1490 1492 1495 1498 1502 1506 1510 1513 1517 1520 1524 1526 1529 1532 1534 1537 1539 1540 1542 1544 1545 1546 1547 1548 1550 1551 1552 1553 1555 1556 1557 1558 1559 1559 1560 1560 1561 1562 1562 1563 1564 1564